Location: Newark
(34.3481°N, 134.0494°E)
Time: 07:27:09
(UTC+00:00)

deb Explorer IX - All Passes

Search period start: 28 January 2020 00:00
Search period end: 07 February 2020 00:00
Orbit: 548 x 1101 km, 38.8° (Epoch: 27 January)

Date Brightness Start Highest point End Pass type
(mag) Time Alt. Az. Time Alt. Az. Time Alt. Az.
28 Jan - 09:50:05 10° SSW 09:55:30 33° SE 10:01:32 10° E visible
28 Jan - 11:35:51 10° WSW 11:42:28 88° SSE 11:49:45 10° ENE visible
28 Jan - 13:23:24 10° W 13:30:22 62° N 13:37:38 10° ENE night (unlit)
28 Jan - 15:11:10 10° WNW 15:18:28 74° NNE 15:25:38 10° E night (unlit)
28 Jan - 16:58:54 10° WNW 17:05:59 54° SSW 17:12:35 10° SE night (unlit)
28 Jan - 18:48:40 10° WSW 18:52:26 15° SW 18:56:02 10° SSW night (unlit)
29 Jan - 09:27:49 10° SSW 09:33:05 32° SE 09:39:01 10° E visible
29 Jan - 11:13:33 10° WSW 11:20:01 89° SSE 11:27:15 10° ENE visible
29 Jan - 13:01:03 10° W 13:07:54 61° N 13:15:10 10° ENE visible
29 Jan - 14:48:43 10° WNW 14:55:59 74° NNE 15:03:13 10° E night (unlit)
29 Jan - 16:36:25 10° WNW 16:43:30 54° SSW 16:50:13 10° SE night (unlit)
29 Jan - 18:26:10 10° WSW 18:30:00 15° SW 18:33:40 10° SSW night (unlit)
30 Jan - 09:05:33 10° SSW 09:10:40 32° SE 09:16:29 10° E visible
30 Jan - 10:51:15 10° WSW 10:57:34 90° SE 11:04:42 10° ENE visible
30 Jan - 12:38:42 10° W 12:45:25 61° N 12:52:40 10° ENE visible
30 Jan - 14:26:18 10° WNW 14:33:30 75° NNE 14:40:47 10° E night (unlit)
30 Jan - 16:13:56 10° WNW 16:21:01 53° SSW 16:27:49 10° SE night (unlit)
30 Jan - 18:03:40 10° WSW 18:07:33 15° SW 18:11:17 10° SSW night (unlit)
31 Jan - 08:43:18 10° SSW 08:48:17 32° SE 08:53:56 10° E daylight
31 Jan - 10:28:59 10° WSW 10:35:07 89° NNW 10:42:10 10° ENE visible
31 Jan - 12:16:22 10° W 12:22:57 61° N 12:30:10 10° ENE visible
31 Jan - 14:03:54 10° WNW 14:11:00 75° NNE 14:18:20 10° E night (unlit)
31 Jan - 15:51:28 10° WNW 15:58:30 53° SSW 16:05:23 10° SE night (unlit)
31 Jan - 17:41:12 10° WSW 17:45:05 15° SW 17:48:51 10° SSW night (unlit)
01 Feb - 08:21:03 10° SSW 08:25:53 32° SE 08:31:24 10° E daylight
01 Feb - 10:06:44 10° WSW 10:12:42 88° NNW 10:19:37 10° ENE visible
01 Feb - 11:54:03 10° W 12:00:29 60° N 12:07:38 10° ENE visible
01 Feb - 13:41:30 10° WNW 13:48:29 76° NNE 13:55:51 10° ESE night (unlit)
01 Feb - 15:29:01 10° WNW 15:36:00 52° SSW 15:42:56 10° SE night (unlit)
01 Feb - 17:18:44 10° WSW 17:22:36 15° SW 17:26:24 10° SSW night (unlit)
02 Feb - 07:58:50 10° SSW 08:03:30 31° SE 08:08:51 10° E daylight
02 Feb - 09:44:28 10° WSW 09:50:17 88° NNW 09:57:04 10° ENE visible
02 Feb - 11:31:45 10° W 11:38:02 60° N 11:45:06 10° ENE visible
02 Feb - 13:19:08 10° WNW 13:26:00 76° NNE 13:33:21 10° ESE visible
02 Feb - 15:06:35 10° WNW 15:13:29 51° SSW 15:20:28 10° SE night (unlit)
02 Feb - 16:56:17 10° WSW 17:00:07 15° SW 17:03:54 10° SSW night (unlit)
03 Feb - 07:36:36 10° SSW 07:41:07 31° SE 07:46:19 10° E daylight
03 Feb - 09:22:14 10° WSW 09:27:52 87° NNW 09:34:30 10° ENE visible
03 Feb - 11:09:27 10° W 11:15:35 59° N 11:22:32 10° ENE visible
03 Feb - 12:56:45 10° WNW 13:03:30 76° NNE 13:10:49 10° ESE visible
03 Feb - 14:44:09 10° WNW 14:50:57 50° SSW 14:57:58 10° SE night (unlit)
03 Feb - 16:33:52 10° WSW 16:37:38 15° SW 16:41:22 10° SSW night (unlit)
04 Feb - 07:14:22 10° SSW 07:18:45 31° SE 07:23:47 10° E daylight
04 Feb - 09:00:01 10° WSW 09:05:28 86° NNW 09:11:56 10° ENE visible
04 Feb - 10:47:11 10° W 10:53:08 58° N 10:59:58 10° ENE visible
04 Feb - 12:34:24 10° WNW 12:41:01 77° NNE 12:48:17 10° ESE visible
04 Feb - 14:21:45 10° WNW 14:28:27 50° SSW 14:35:26 10° SE night (unlit)
04 Feb - 16:11:29 10° WSW 16:15:08 15° SW 16:18:47 10° SSW night (unlit)
05 Feb - 06:52:09 10° SSW 06:56:24 30° SE 07:01:15 10° E daylight
05 Feb - 08:37:47 10° WSW 08:43:05 85° NNW 08:49:22 10° ENE daylight
05 Feb - 10:24:55 10° W 10:30:42 58° N 10:37:24 10° ENE visible
05 Feb - 12:12:04 10° WNW 12:18:31 77° NNE 12:25:44 10° ESE visible
05 Feb - 13:59:21 10° WNW 14:05:55 49° SSW 14:12:54 10° SE night (unlit)
05 Feb - 15:49:07 10° WSW 15:52:38 14° SW 15:56:10 10° SSW night (unlit)
06 Feb - 06:29:56 10° SSW 06:34:03 30° SE 06:38:45 10° E daylight
06 Feb - 08:15:34 10° WSW 08:20:42 84° NNW 08:26:49 10° ENE daylight
06 Feb - 10:02:39 10° W 10:08:17 57° N 10:14:50 10° ENE visible
06 Feb - 11:49:45 10° WNW 11:56:03 77° NNE 12:03:10 10° ESE visible
06 Feb - 13:36:58 10° WNW 13:43:25 48° SSW 13:50:20 10° SE night (unlit)
06 Feb - 15:26:47 10° WSW 15:30:08 14° SW 15:33:31 10° SSW night (unlit)
